This demonstration page uses our WeatherBlox Daily Observations layout. Learn more.

Left ArrowRight Arrow

44.8408, -93.29828

Hourly Observations for March 19, 2018

Temp ( °F °C ) Dew Point ( °F °C ) Humidity (%) Winds ( mph kmh ) Pressure ( in mb ) Visibility ( mi km ) Precip ( " mm )
12:53 am 00:53 Cloudy 38 3.3 34 1.1 86 86 NNE 3 6 29.98 1015 10 16 0.00 0.00
1:53 am 01:53 Cloudy 38 3.3 34 1.1 86 86 Calm 30.00 1016 10 16 0.00 0.00
2:06 am 02:06 Cloudy 37 2.8 34 1.1 89 89 NNE 5 7 30.03 1017 10 16 0.00 0.00
2:32 am 02:32 Cloudy 37 2.8 34 1.1 89 89 NNE 5 7 30.03 1017 10 16 0.00 0.00
2:53 am 02:53 Cloudy 37 2.8 33 0.6 86 86 NNE 6 9 30.01 1016 10 16 0.00 0.00
3:53 am 03:53 Cloudy 36 2.2 29 -1.7 76 76 NNE 9 15 30.00 1016 10 16 0.00 0.00
4:53 am 04:53 Cloudy 34 1.1 27 -2.8 76 76 NNE 9 15 30.01 1016 10 16 0.00 0.00
5:53 am 05:53 Cloudy 34 1.1 27 -2.8 76 76 NNE 9 15 30.01 1016 10 16 0.00 0.00
6:53 am 06:53 Cloudy 33 0.6 27 -2.8 78 78 NNE 8 13 30.02 1017 10 16 0.00 0.00
7:53 am 07:53 Mostly Cloudy 32 0 26 -3.3 79 79 N 7 11 30.02 1017 10 16 0.00 0.00
8:53 am 08:53 Mostly Cloudy 33 0.6 27 -2.8 78 78 NNE 9 15 30.02 1017 10 16 0.00 0.00
9:53 am 09:53 Mostly Cloudy 35 1.7 28 -2.2 76 76 NNE 10 17 30.03 1017 10 16 0.00 0.00
10:53 am 10:53 Cloudy 36 2.2 28 -2.2 73 73 NE 10 17 30.05 1018 10 16 0.00 0.00
11:53 am 11:53 Cloudy 38 3.3 28 -2.2 68 68 ENE 10 17 30.04 1017 10 16 0.00 0.00
12:53 pm 12:53 Cloudy 40 4.4 27 -2.8 60 60 ENE 10 17 30.04 1017 10 16 0.00 0.00
1:53 pm 13:53 Mostly Cloudy 41 5 27 -2.8 57 57 E 13 20 30.04 1017 10 16 0.00 0.00
2:53 pm 14:53 Mostly Cloudy 44 6.7 27 -2.8 51 51 ENE 13 20 30.02 1017 10 16 0.00 0.00
3:53 pm 15:53 Cloudy 43 6.1 26 -3.3 51 51 E 14 22 30.02 1017 10 16 0.00 0.00
4:53 pm 16:53 Cloudy 43 6.1 24 -4.4 47 47 E 14 22 30.02 1017 10 16 0.00 0.00
5:53 pm 17:53 Cloudy 43 6.1 24 -4.4 47 47 ENE 15 24 30.02 1017 10 16 0.00 0.00
6:53 pm 18:53 Cloudy 41 5 24 -4.4 51 51 ENE 10 17 30.02 1017 10 16 0.00 0.00
7:53 pm 19:53 Cloudy 38 3.3 26 -3.3 62 62 NNE 10 17 30.04 1017 10 16 0.00 0.00
8:53 pm 20:53 Cloudy 37 2.8 25 -3.9 62 62 NE 13 20 30.05 1018 10 16 0.00 0.00
9:53 pm 21:53 Cloudy 36 2.2 23 -5 59 59 ENE 12 19 30.06 1018 10 16 0.00 0.00
10:53 pm 22:53 Cloudy 35 1.7 23 -5 61 61 NE 9 15 30.06 1018 10 16 0.00 0.00
11:53 pm 23:53 Cloudy 34 1.1 23 -5 64 64 NNE 9 15 30.06 1018 10 16 0.00 0.00

Powered by AerisWeather